[[{"header":{"parameterUnit":"m.s-1","parameterCategory":1,"la1":30.2991,"la2":30.254,"lo1":-89.0895,"lo2":-89.0444,"dy":0.0017,"dx":0.0017,"nx":28,"ny":28,"refTime":"2023-11-14T09:00:00:Z","depth":0,"parameterNumber":2,"parameterNumberName":"U-component_of_WINDS"},"data":[0,0,0,0,0,0,0,0,0,0,0,0,0,0,0,0,0,0,0,0,0,0,0,0,0,0,0,0,0,0,0,0,0,0,0,0,0,0,0,0,0,0,0,0,0,0,0,0,0,0,0,0,0,0,0,0,0,0,-6.0017,-6.0018,0,-6.0063,-6.0063,-6.0064,-5.9913,-5.9908,-5.9904,-5.99,-5.9946,-5.9951,-5.9957,0,0,0,0,0,0,0,0,0,0,0,0,0,-5.98,-5.9804,-6.0017,-6.0018,-6.0018,-6.0062,-6.0063,-6.0064,-5.9914,-5.9908,-5.9903,-5.9897,-5.9944,-5.9951,-5.9957,0,0,0,0,0,0,0,0,0,0,0,0,0,-5.9875,-5.9806,-6.0017,-5.9949,-5.9943,-6.0062,-6.0063,-6.0064,-5.9915,-5.9908,-5.9901,-5.9895,-5.9942,-5.995,-5.9958,-6.0145,0,0,-5.9983,-5.9987,0,0,0,0,0,0,0,0,-5.9871,-5.9883,-5.9958,-5.9954,-5.9948,-5.9975,-6.0003,-6.0091,-5.9917,-5.9926,-5.9899,-5.9892,-5.9961,-5.9967,-5.9991,-6.0147,-6.0149,-5.9984,-5.9989,-5.9992,-5.9995,0,0,0,0,0,0,0,-5.9865,-5.988,-6.0035,-5.9959,-5.9953,-5.9916,-5.9919,-6.0019,-5.9981,-5.9924,-5.9913,-5.9921,-5.9957,-5.9983,-5.9991,-6.015,-5.9984,-5.9991,-5.9996,-5.9999,-6.0462,-6.0469,0,0,0,0,0,0,-5.9869,-5.9877,-6.0033,-6.0036,-5.9891,-5.9925,-5.9928,-5.9973,-5.998,-5.9974,-5.9927,-5.9914,-5.9973,-5.9981,-5.9992,-6.0212,-5.9992,-6.0,-6.0005,-6.0455,-6.0464,-6.0472,0,0,0,0,0,0,-5.9865,-5.9885,-6.0032,-5.9954,-5.9969,-5.9936,-5.9987,-5.9978,-6.0004,-5.9981,-5.9974,-5.9961,-5.9968,-5.998,-6.0108,-6.0211,-6.0004,-6.0011,-6.0446,-6.0458,-6.0468,-6.0654,0,0,0,0,0,0,-5.986,-5.9884,-5.9955,-5.9956,-5.9974,-6.0148,-5.9994,-5.9983,-6.0018,-6.0002,-6.0011,-6.0006,-5.9963,-6.0097,-6.0116,-6.0219,-6.0017,-6.0437,-6.0451,-6.0465,-6.0639,-6.067,-6.0697,0,0,0,0,0,-5.9852,-6.0006,-5.996,-5.9979,-6.0062,-6.0155,-6.0165,-6.0112,-6.0027,-6.0099,-6.0084,-6.0006,-6.0197,-6.0111,-6.0132,-6.0239,-6.043,-6.0447,-6.0464,-6.0625,-6.0664,-6.0696,0,0,0,0,0,0,-6.0018,-6.0005,-5.9953,-6.0112,-6.0136,-6.0129,-6.0217,-6.0154,-6.0203,-6.0185,-6.0117,-6.0121,-6.0261,-6.0262,-6.0167,-6.042,-6.0299,-6.0321,-6.0415,-6.0451,-6.048,-6.0478,-6.0024,0,0,0,0,0,-6.0073,-6.0149,-6.0133,-6.0274,-6.0288,-6.0251,-6.0289,-6.0247,-6.0268,-6.0278,-6.0272,-6.0297,-6.0361,-6.0406,-6.0465,-6.0637,-6.0637,-6.0721,-6.075,-6.0774,-6.0794,-6.0886,-6.0923,-6.0527,-6.0526,-6.0526,0,0,-6.0187,-6.0189,-6.0241,-6.0307,-6.0321,-6.0401,-6.0261,-6.0352,-6.0411,-6.0291,-6.0412,-6.0409,-6.0431,-6.0583,-6.0649,-6.0588,-6.0904,-6.0795,-6.0815,-6.0822,-6.0907,-6.0945,-6.0978,-6.0538,-6.0536,-6.0534,0,0,-6.0436,-6.0446,-6.0564,-6.0581,-6.0603,-6.0577,-6.0605,-6.0609,-6.0602,-6.0722,-6.0635,-6.0703,-6.0817,-6.0837,-6.0862,-6.1118,-6.1049,-6.1139,-6.1293,-6.1383,-6.1415,-6.1442,-6.1535,-6.1569,-6.1159,-6.1159,-6.1159,0,-6.0576,-6.0694,-6.0633,-6.0731,-6.0763,-6.0658,-6.0778,-6.0796,-6.0837,-6.0861,-6.0792,-6.0932,-6.094,-6.1095,-6.1158,-6.1181,-6.1212,-6.1139,-6.1415,-6.1442,-6.1467,-6.1554,-6.1589,-6.117,-6.1169,-6.1168,-6.1167,0,-6.0865,-6.0948,-6.1041,-6.1083,-6.1125,-6.1233,-6.1189,-6.1239,-6.1192,-6.1174,-6.1298,-6.1303,-6.1361,-6.1394,-6.1349,-6.1543,-6.1505,-6.1426,-6.1303,-6.1517,-6.1598,-6.1631,-6.1186,-6.1182,-6.1179,-6.1176,0,0,-6.1221,-6.1228,-6.1264,-6.1282,-6.1298,-6.1361,-6.1464,-6.1521,-6.1565,-6.1596,-6.1682,-6.178,-6.1707,-6.1736,-6.1692,-6.1772,-6.1976,-6.1683,-6.1682,-6.1739,-6.2191,-6.2252,-6.2291,-6.1929,-6.1935,-6.194,-6.219,0,-6.1468,-6.1646,-6.1594,-6.1772,-6.1848,-6.175,-6.1839,-6.1859,-6.1845,-6.1907,-6.1889,-6.1961,-6.1859,-6.1876,-6.195,-6.1936,-6.2066,-6.1916,-6.2009,-6.2013,-6.2008,-6.2334,-6.2398,-6.2633,-6.2221,-6.2226,-6.223,0,-6.178,-6.1824,-6.201,-6.2014,-6.2044,-6.2126,-6.2174,-6.2234,-6.2254,-6.2238,-6.227,-6.221,-6.2311,-6.2187,-6.2326,-6.2225,-6.2259,-6.2258,-6.2266,-6.2274,-6.2136,-6.2352,-6.2707,-6.2743,-6.2279,-6.2276,-6.2272,0,-6.2024,-6.2129,-6.2254,-6.2272,-6.2279,-6.2339,-6.2345,-6.2358,-6.2395,-6.2437,-6.2461,-6.2514,-6.2544,-6.2586,-6.2542,-6.2455,-6.2688,-6.256,-6.2678,-6.268,-6.2733,-6.2731,-6.3101,-6.2753,-6.2753,-6.2752,-6.2751,0,-6.2306,-6.2424,-6.2363,-6.2441,-6.257,-6.2509,-6.2638,-6.2633,-6.2645,-6.272,-6.2636,-6.2708,-6.2644,-6.271,-6.2676,-6.2797,-6.281,-6.28,-6.279,-6.2809,-6.2811,-6.2832,-6.2815,-6.2761,-6.2759,-6.2757,-6.2756,0,-6.2601,-6.2565,-6.2695,-6.2691,-6.2692,-6.2788,-6.2784,-6.2855,-6.2834,-6.2929,-6.2948,-6.2914,-6.2987,-6.2947,-6.3022,-6.2999,-6.3157,-6.3123,-6.315,-6.3142,-6.3264,-6.3254,-6.3661,-6.3712,-6.3331,-6.3334,-6.3337,0,-6.2784,-6.2873,-6.2878,-6.2922,-6.2934,-6.3005,-6.3043,-6.2986,-6.3029,-6.3058,-6.3127,-6.3192,-6.3242,-6.3363,-6.3346,-6.3403,-6.3371,-6.351,-6.3379,-6.3396,-6.3375,-6.3371,-6.338,-6.3537,-6.3542,-6.3545,-6.3548,0,-6.3114,-6.3092,-6.315,-6.3203,-6.325,-6.3289,-6.332,-6.3361,-6.3304,-6.3356,-6.343,-6.3469,-6.3545,-6.3612,-6.3661,-6.3665,-6.3599,-6.3589,-6.362,-6.3641,-6.3654,-6.365,-6.3224,-6.3581,-6.3577,-6.3575,-6.3573,-6.3572,-6.336,-6.3435,-6.345,-6.3518,-6.3535,-6.3566,-6.3633,-6.362,-6.3681,-6.3739,-6.3701,-6.3788,-6.3805,-6.3864,-6.3878,-6.3945,-6.3889,-6.3934,-6.3945,-6.3958,-6.3975,-6.3642,-6.3954,-6.3953,-6.3952,-6.3951,-6.395,0,-6.3687,-6.3692,-6.3755,-6.3801,-6.3855,-6.3786,-6.3816,-6.3866,-6.3944,-6.3965,-6.4016,-6.4101,-6.4165,-6.4153,-6.4211,-6.4267,-6.4238,-6.4285,-6.4281,-6.4284,-6.4021,-6.3989,-6.4308,-6.4307,-6.4307,-6.4307,-6.4307,-6.4307,-6.3864,-6.3986,-6.3966,-6.4096,-6.41,-6.4185,-6.4209,-6.4237,-6.4254,-6.4353,-6.4406,-6.4397,-6.4405,-6.4463,-6.4519,-6.4513,-6.4539,-6.4598,-6.4582,-6.4337,-6.4302,-6.4268,-6.4238,-6.4604,-6.4604,-6.4839,-6.4841,-6.4843]},{"header":{"parameterUnit":"m.s-1","parameterCategory":1,"la1":30.2991,"la2":30.254,"lo1":-89.0895,"lo2":-89.0444,"dy":0.0017,"dx":0.0017,"nx":28,"ny":28,"refTime":"2023-11-14T09:00:00:Z","depth":0,"parameterNumber":3,"parameterNumberName":"V-component_of_WINDS"},"data":[0,0,0,0,0,0,0,0,0,0,0,0,0,0,0,0,0,0,0,0,0,0,0,0,0,0,0,0,0,0,0,0,0,0,0,0,0,0,0,0,0,0,0,0,0,0,0,0,0,0,0,0,0,0,0,0,0,0,-3.7639,-3.7639,0,-3.7675,-3.7675,-3.7676,-3.7631,-3.7629,-3.7628,-3.7626,-3.7662,-3.7664,-3.7666,0,0,0,0,0,0,0,0,0,0,0,0,0,-3.7529,-3.7531,-3.7639,-3.7639,-3.764,-3.7675,-3.7675,-3.7676,-3.7631,-3.7629,-3.7627,-3.7625,-3.7661,-3.7664,-3.7667,0,0,0,0,0,0,0,0,0,0,0,0,0,-3.7572,-3.7532,-3.7639,-3.7622,-3.7621,-3.7675,-3.7675,-3.7676,-3.7632,-3.7629,-3.7627,-3.7624,-3.766,-3.7663,-3.7667,-3.7739,0,0,-3.7678,-3.768,0,0,0,0,0,0,0,0,-3.757,-3.7576,-3.7624,-3.7623,-3.7622,-3.7646,-3.7649,-3.7697,-3.7632,-3.7627,-3.7626,-3.7623,-3.7658,-3.7662,-3.7674,-3.7741,-3.7742,-3.7679,-3.7681,-3.7683,-3.7684,0,0,0,0,0,0,0,-3.7567,-3.7574,-3.7653,-3.7625,-3.7623,-3.7611,-3.7615,-3.7658,-3.7656,-3.7628,-3.7625,-3.7629,-3.7657,-3.7671,-3.7675,-3.7743,-3.7679,-3.7682,-3.7684,-3.7686,-3.7868,-3.7871,0,0,0,0,0,0,-3.7566,-3.7572,-3.7652,-3.7654,-3.7589,-3.7615,-3.7619,-3.7641,-3.7656,-3.7655,-3.7631,-3.7627,-3.7665,-3.767,-3.7676,-3.776,-3.7682,-3.7686,-3.7688,-3.7865,-3.7869,-3.7871,0,0,0,0,0,0,-3.7564,-3.7574,-3.7651,-3.7612,-3.7621,-3.762,-3.7644,-3.7643,-3.7656,-3.7658,-3.7658,-3.7646,-3.7664,-3.767,-3.7723,-3.776,-3.7688,-3.7691,-3.7862,-3.7866,-3.787,-3.7929,0,0,0,0,0,0,-3.7561,-3.7573,-3.7601,-3.7613,-3.7623,-3.7699,-3.7647,-3.7645,-3.7663,-3.7657,-3.7672,-3.7672,-3.7662,-3.7718,-3.7727,-3.7764,-3.7694,-3.7859,-3.7864,-3.7869,-3.7924,-3.7935,-3.7944,0,0,0,0,0,-3.7557,-3.7617,-3.7603,-3.7613,-3.7659,-3.7701,-3.7707,-3.7695,-3.7666,-3.7694,-3.7695,-3.7671,-3.7755,-3.7724,-3.7733,-3.7772,-3.7857,-3.7863,-3.7868,-3.792,-3.7933,-3.7944,0,0,0,0,0,0,-3.7609,-3.7618,-3.7603,-3.7669,-3.7684,-3.7693,-3.7728,-3.771,-3.7734,-3.7728,-3.7712,-3.7716,-3.7772,-3.7777,-3.7742,-3.7842,-3.7801,-3.7809,-3.7836,-3.7849,-3.7859,-3.7856,-3.7697,0,0,0,0,0,-3.7629,-3.7663,-3.7668,-3.7725,-3.7734,-3.773,-3.7748,-3.7737,-3.7753,-3.7759,-3.7764,-3.778,-3.7809,-3.7829,-3.7857,-3.7924,-3.7926,-3.7956,-3.7966,-3.7974,-3.7981,-3.8016,-3.8029,-3.7891,-3.7891,-3.7891,0,0,-3.7669,-3.7678,-3.77,-3.7736,-3.7747,-3.7782,-3.7736,-3.7775,-3.78,-3.7765,-3.7815,-3.7819,-3.7835,-3.7896,-3.7922,-3.7902,-3.8019,-3.7981,-3.7988,-3.7991,-3.8023,-3.8036,-3.8048,-3.7895,-3.7894,-3.7894,0,0,-3.7759,-3.777,-3.7818,-3.783,-3.7847,-3.7843,-3.7854,-3.7866,-3.7867,-3.7917,-3.7891,-3.792,-3.7972,-3.7984,-3.7997,-3.809,-3.8068,-3.8099,-3.8151,-3.8185,-3.8196,-3.8205,-3.8238,-3.8249,-3.8106,-3.8106,-3.8106,0,-3.7807,-3.7859,-3.7845,-3.7886,-3.7901,-3.7871,-3.7918,-3.793,-3.7955,-3.7967,-3.7943,-3.8006,-3.8015,-3.8077,-3.8099,-3.8111,-3.8123,-3.8098,-3.8196,-3.8205,-3.8214,-3.8244,-3.8256,-3.811,-3.8109,-3.8109,-3.8109,0,-3.7916,-3.7952,-3.7988,-3.8013,-3.8033,-3.8077,-3.8069,-3.809,-3.8077,-3.8076,-3.8126,-3.8135,-3.8163,-3.8177,-3.8165,-3.8237,-3.8223,-3.8198,-3.8157,-3.8231,-3.8259,-3.8271,-3.8115,-3.8114,-3.8113,-3.8112,0,0,-3.8042,-3.8057,-3.807,-3.808,-3.8096,-3.8123,-3.8165,-3.8192,-3.8211,-3.8228,-3.8262,-3.8305,-3.8282,-3.8296,-3.8285,-3.8315,-3.8386,-3.8286,-3.8286,-3.8304,-3.8464,-3.8483,-3.8497,-3.8372,-3.8374,-3.8376,-3.8463,0,-3.8132,-3.8205,-3.8192,-3.8262,-3.8295,-3.8265,-3.8301,-3.8314,-3.8313,-3.8339,-3.8338,-3.8369,-3.8335,-3.8344,-3.8372,-3.8372,-3.8418,-3.8365,-3.8402,-3.8404,-3.8399,-3.8512,-3.8532,-3.8614,-3.8474,-3.8475,-3.8477,0,-3.8247,-3.8269,-3.8342,-3.835,-3.8364,-3.8396,-3.8419,-3.8445,-3.8459,-3.8456,-3.8471,-3.8454,-3.8494,-3.8451,-3.8506,-3.847,-3.8484,-3.8486,-3.8489,-3.8492,-3.8445,-3.8517,-3.864,-3.8652,-3.8494,-3.8493,-3.8492,0,-3.8331,-3.8378,-3.8427,-3.8437,-3.8449,-3.8472,-3.8478,-3.8488,-3.8505,-3.8525,-3.8535,-3.8559,-3.8573,-3.8591,-3.858,-3.8551,-3.8636,-3.8593,-3.8634,-3.8635,-3.8654,-3.8653,-3.878,-3.8664,-3.8663,-3.8663,-3.8663,0,-3.8433,-3.8479,-3.8465,-3.8496,-3.8545,-3.853,-3.8579,-3.8581,-3.8591,-3.862,-3.8596,-3.8624,-3.8608,-3.8634,-3.8626,-3.8672,-3.8678,-3.8676,-3.8673,-3.8678,-3.8678,-3.8687,-3.8681,-3.8666,-3.8666,-3.8665,-3.8664,0,-3.8535,-3.8528,-3.858,-3.8586,-3.8588,-3.8625,-3.8629,-3.8657,-3.8653,-3.8691,-3.8699,-3.8693,-3.8723,-3.8714,-3.8746,-3.874,-3.8798,-3.8788,-3.8794,-3.8791,-3.8833,-3.8829,-3.897,-3.8987,-3.886,-3.8861,-3.8862,0,-3.8601,-3.8635,-3.8644,-3.8662,-3.867,-3.8699,-3.8716,-3.8701,-3.8719,-3.8735,-3.8761,-3.8788,-3.8809,-3.8858,-3.8856,-3.888,-3.8871,-3.8918,-3.8874,-3.8877,-3.8871,-3.8869,-3.8871,-3.8927,-3.8929,-3.893,-3.8931,0,-3.8717,-3.8712,-3.8736,-3.876,-3.878,-3.8797,-3.8813,-3.8829,-3.8815,-3.8836,-3.8866,-3.8882,-3.8914,-3.8941,-3.8963,-3.8968,-3.8947,-3.8945,-3.8955,-3.8961,-3.8962,-3.8961,-3.8818,-3.8942,-3.894,-3.894,-3.8939,-3.8939,-3.8803,-3.8831,-3.8842,-3.887,-3.888,-3.8894,-3.892,-3.8919,-3.8944,-3.8969,-3.8958,-3.8992,-3.9003,-3.9029,-3.9037,-3.9062,-3.9044,-3.906,-3.9064,-3.9068,-3.9073,-3.8958,-3.9066,-3.9066,-3.9066,-3.9065,-3.9065,0,-3.8918,-3.8923,-3.8948,-3.897,-3.8992,-3.897,-3.8985,-3.9004,-3.9035,-3.9046,-3.9067,-3.91,-3.9126,-3.9126,-3.9149,-3.917,-3.9161,-3.9177,-3.9175,-3.9176,-3.9088,-3.9076,-3.9184,-3.9184,-3.9184,-3.9184,-3.9183,-3.9183,-3.898,-3.9027,-3.9022,-3.9073,-3.9077,-3.911,-3.912,-3.9133,-3.9142,-3.918,-3.9201,-3.9201,-3.9207,-3.9231,-3.9253,-3.9252,-3.9262,-3.9281,-3.9277,-3.9194,-3.9183,-3.9171,-3.916,-3.9283,-3.9283,-3.9362,-3.9363,-3.9364]}]]